Weather History for Wildwood, NJ

Change the Weather History Date:

Wednesday, February 13, 2013

  Actual Average Record
Temperature  
Mean Temperature 36 °F -  
Max Temperature 44 °F 42 °F 59 °F (2008)
Min Temperature 28 °F 29 °F 21 °F (2000)
Degree Days  
Heating Degree Days 29    
Moisture  
Dew Point 30 °F    
Average Humidity 76    
Maximum Humidity 93    
Minimum Humidity 57    
Precipitation  
Precipitation 0.35 in - - ()
Sea Level Pressure  
Sea Level Pressure 29.80 in    
Wind  
Wind Speed 7 mph (NE)    
Max Wind Speed 15 mph    
Max Gust Speed 23 mph    
Visibility 8 miles    
Events      
Averages and records for this station are not official NWS values.
T = Trace of Precipitation, MM = Missing Value Source: NWS Daily Summary

Daily Weather History Graph

Daily Weather History Graph

Search for Another Location

Airport:

Trip Planner

Search our weather history database for the weather conditions in past years. The results will help you decide how hot, cold, wet, or windy it might be!

Date:

Astronomy

Feb. 13, 2013 Rise Set
Actual Time 6:53 AM EST 5:35 PM EST
Civil Twilight 6:25 AM EST 6:02 PM EST
Nautical Twilight 5:54 AM EST 6:33 PM EST
Astronomical Twilight 5:23 AM EST 7:04 PM EST
Moon 8:23 AM EST (2/13) 9:32 PM EST (2/13)
Length of Visible Light 11h 36m
Length of Day
10h 41m
Waxing Crescent, 13% of the Moon is Illuminated
Feb 13
Waxing Crescent
Feb 17
First Quarter
Feb 25
Full
Mar 4
Last Quarter
Mar 11
New

Hourly Weather History & Observations

Time (EST) Temp. Windchill Dew Point Humidity Pressure Visibility Wind Dir Wind Speed Gust Speed Precip Events Conditions
12:15 AM 33.8 °F 30.8 °F 28.4 °F 81% 29.98 in - NNE 3.5 mph - N/A   Clear
12:35 AM 33.8 °F 30.8 °F 28.4 °F 81% 29.98 in - NNE 3.5 mph - N/A   Clear
12:55 AM 35.6 °F 32.8 °F 28.4 °F 75% 29.98 in - NE 3.5 mph - N/A   Clear
1:15 AM 33.8 °F 30.8 °F 26.6 °F 75% 29.98 in - NNE 3.5 mph - N/A   Clear
1:35 AM 33.8 °F 30.8 °F 26.6 °F 75% 29.99 in - NE 3.5 mph - N/A   Clear
1:55 AM 33.8 °F 30.8 °F 26.6 °F 75% 29.98 in - NE 3.5 mph - N/A   Clear
2:15 AM 33.8 °F 30.8 °F 26.6 °F 75% 29.97 in - NNE 3.5 mph - N/A   Clear
2:35 AM 33.8 °F 29.6 °F 24.8 °F 70% 29.96 in - NE 4.6 mph - N/A   Clear
2:55 AM 33.8 °F 30.8 °F 24.8 °F 70% 29.95 in - NE 3.5 mph - N/A   Clear
3:15 AM 32.0 °F 27.5 °F 24.8 °F 75% 29.94 in - NE 4.6 mph - N/A   Clear
3:35 AM 32.0 °F - 24.8 °F 75% 29.94 in - Calm Calm - N/A   Clear
3:55 AM 30.2 °F 26.7 °F 24.8 °F 80% 29.93 in - NE 3.5 mph - N/A   Clear
4:15 AM 30.2 °F - 24.8 °F 80% 29.93 in - Calm Calm - N/A   Clear
4:35 AM 30.2 °F - 24.8 °F 80% 29.92 in - Calm Calm - N/A   Clear
4:55 AM 30.2 °F - 24.8 °F 80% 29.93 in - Calm Calm - N/A   Clear
5:15 AM 28.4 °F - 24.8 °F 86% 29.93 in - Calm Calm - N/A   Unknown
5:35 AM 28.4 °F - 24.8 °F 86% 29.93 in - Calm Calm - N/A   Unknown
5:55 AM 30.2 °F 26.7 °F 24.8 °F 80% 29.92 in - ENE 3.5 mph - N/A   Clear
6:15 AM 33.8 °F 30.8 °F 26.6 °F 75% 29.92 in - ENE 3.5 mph - N/A   Clear
6:35 AM 33.8 °F 30.8 °F 26.6 °F 75% 29.92 in - ENE 3.5 mph - N/A   Clear
6:55 AM 33.8 °F 29.6 °F 26.6 °F 75% 29.92 in - NE 4.6 mph - N/A   Clear
7:15 AM 35.6 °F 31.7 °F 26.6 °F 70% 29.92 in - ENE 4.6 mph - N/A   Clear
7:35 AM 35.6 °F 30.7 °F 26.6 °F 70% 29.90 in - NE 5.8 mph - N/A   Clear
7:55 AM 37.4 °F 31.4 °F 26.6 °F 65% 29.90 in - ENE 8.1 mph - N/A   Clear
8:15 AM 37.4 °F 31.4 °F 26.6 °F 65% 29.89 in 10.0 mi ENE 8.1 mph - N/A   Clear
8:35 AM 37.4 °F 30.3 °F 28.4 °F 70% 29.89 in 10.0 mi ENE 10.4 mph - N/A   Mostly Cloudy
8:55 AM 37.4 °F 30.8 °F 28.4 °F 70% 29.90 in 10.0 mi ENE 9.2 mph - N/A   Overcast
9:15 AM 39.2 °F 32.5 °F 28.4 °F 65% 29.91 in 10.0 mi ENE 10.4 mph - N/A   Overcast
9:35 AM 39.2 °F 33.0 °F 28.4 °F 65% 29.90 in - ENE 9.2 mph - N/A   Overcast
9:55 AM 39.2 °F 33.6 °F 30.2 °F 70% 29.89 in 10.0 mi East 8.1 mph - N/A   Overcast
10:15 AM 41.0 °F 34.7 °F 28.4 °F 61% 29.88 in 10.0 mi East 10.4 mph - N/A   Mostly Cloudy
10:35 AM 41.0 °F 35.2 °F 28.4 °F 61% 29.87 in 10.0 mi ENE 9.2 mph - N/A   Mostly Cloudy
10:55 AM 41.0 °F 35.8 °F 28.4 °F 61% 29.88 in 10.0 mi ENE 8.1 mph - N/A   Overcast
11:15 AM 41.0 °F 34.7 °F 28.4 °F 61% 29.88 in 10.0 mi ENE 10.4 mph - N/A   Overcast
11:35 AM 41.0 °F 34.7 °F 30.2 °F 65% 29.86 in 10.0 mi East 10.4 mph - N/A   Mostly Cloudy
11:55 AM 41.0 °F 34.3 °F 30.2 °F 65% 29.83 in 10.0 mi ENE 11.5 mph - N/A   Scattered Clouds
12:15 PM 42.8 °F 37.0 °F 32.0 °F 66% 29.82 in 10.0 mi East 10.4 mph 16.1 mph N/A   Partly Cloudy
12:35 PM 42.8 °F 36.2 °F 32.0 °F 66% 29.81 in 10.0 mi East 12.7 mph 18.4 mph N/A   Clear
12:55 PM 44.6 °F 38.1 °F 32.0 °F 61% 29.79 in 10.0 mi ENE 13.8 mph 18.4 mph N/A   Partly Cloudy
1:15 PM 44.6 °F 38.8 °F 30.2 °F 57% 29.77 in 10.0 mi ENE 11.5 mph 16.1 mph N/A   Clear
1:35 PM 44.6 °F 38.8 °F 30.2 °F 57% 29.77 in 10.0 mi ENE 11.5 mph - N/A   Partly Cloudy
1:55 PM 42.8 °F 36.2 °F 32.0 °F 66% 29.75 in 10.0 mi ENE 12.7 mph 19.6 mph N/A   Scattered Clouds
2:15 PM 44.6 °F 38.4 °F 32.0 °F 61% 29.73 in 10.0 mi ENE 12.7 mph 19.6 mph N/A   Mostly Cloudy
2:35 PM 44.6 °F 38.4 °F 33.8 °F 66% 29.72 in 10.0 mi East 12.7 mph 18.4 mph N/A   Mostly Cloudy
2:55 PM 42.8 °F 36.6 °F 33.8 °F 70% 29.71 in 10.0 mi ENE 11.5 mph 17.3 mph N/A   Mostly Cloudy
3:15 PM 42.8 °F 36.2 °F 32.0 °F 66% 29.71 in 10.0 mi ENE 12.7 mph 18.4 mph N/A   Overcast
3:35 PM 41.0 °F 33.9 °F 33.8 °F 76% 29.70 in 10.0 mi ENE 12.7 mph - N/A   Overcast
3:55 PM 41.0 °F 33.9 °F 33.8 °F 76% 29.68 in 10.0 mi ENE 12.7 mph 18.4 mph N/A   Overcast
4:15 PM 39.2 °F 30.8 °F 33.8 °F 81% 29.67 in 10.0 mi NE 15.0 mph - N/A   Overcast
4:35 PM 39.2 °F 31.2 °F 33.8 °F 81% 29.67 in 9.0 mi NE 13.8 mph 19.6 mph 0.01 in   Overcast
4:55 PM 39.2 °F 31.6 °F 33.8 °F 81% 29.67 in 7.0 mi NE 12.7 mph 17.3 mph 0.02 in   Overcast
5:15 PM 39.2 °F 32.0 °F 33.8 °F 81% 29.65 in 3.0 mi NE 11.5 mph 18.4 mph 0.01 in   Overcast
5:35 PM 39.2 °F 31.2 °F 33.8 °F 81% 29.64 in 2.5 mi NE 13.8 mph - 0.02 in   Overcast
5:55 PM 39.2 °F 31.6 °F 33.8 °F 81% 29.64 in 7.0 mi NE 12.7 mph 20.7 mph 0.03 in   Overcast
6:15 PM 39.2 °F 30.8 °F 33.8 °F 81% 29.62 in 4.0 mi NNE 15.0 mph - 0.01 in   Overcast
6:35 PM 39.2 °F 31.6 °F 33.8 °F 81% 29.64 in 5.0 mi NNE 12.7 mph 18.4 mph 0.04 in   Overcast
6:55 PM 39.2 °F 31.6 °F 33.8 °F 81% 29.64 in 7.0 mi NNE 12.7 mph - 0.08 in   Overcast
7:15 PM 37.4 °F 29.8 °F 33.8 °F 87% 29.64 in 7.0 mi NNE 11.5 mph - 0.03 in   Overcast
7:35 PM 37.4 °F 28.9 °F 33.8 °F 87% 29.64 in 7.0 mi NNE 13.8 mph 19.6 mph 0.04 in   Overcast
7:55 PM 37.4 °F 28.9 °F 33.8 °F 87% 29.63 in 7.0 mi NNE 13.8 mph - 0.07 in   Overcast
8:15 PM 37.4 °F 29.3 °F 33.8 °F 87% 29.63 in 8.0 mi North 12.7 mph 17.3 mph 0.02 in   Overcast
8:35 PM 37.4 °F 31.4 °F 33.8 °F 87% 29.63 in 7.0 mi North 8.1 mph - 0.03 in   Overcast
8:55 PM 37.4 °F 30.8 °F 33.8 °F 87% 29.61 in 7.0 mi North 9.2 mph 17.3 mph 0.04 in   Overcast
9:15 PM 37.4 °F 30.3 °F 33.8 °F 87% 29.62 in 8.0 mi North 10.4 mph 17.3 mph 0.01 in   Overcast
9:35 PM 35.6 °F 28.0 °F 33.8 °F 93% 29.63 in 8.0 mi North 10.4 mph 18.4 mph 0.01 in   Overcast
9:55 PM 35.6 °F 27.1 °F 32.0 °F 87% 29.63 in 7.0 mi North 12.7 mph 19.6 mph 0.02 in   Overcast
10:15 PM 35.6 °F 26.6 °F 32.0 °F 87% 29.64 in 7.0 mi North 13.8 mph 23.0 mph 0.01 in   Overcast
10:35 PM 35.6 °F 28.0 °F 32.0 °F 87% 29.65 in 7.0 mi North 10.4 mph 21.9 mph 0.02 in   Overcast
10:55 PM 35.6 °F 27.5 °F 32.0 °F 87% 29.67 in 5.0 mi North 11.5 mph 17.3 mph 0.04 in   Overcast
11:15 PM 35.6 °F 28.0 °F 32.0 °F 87% 29.69 in 5.0 mi North 10.4 mph - 0.02 in   Overcast
11:35 PM 33.8 °F 27.0 °F 30.2 °F 87% 29.70 in 4.0 mi North 8.1 mph - 0.04 in   Overcast
11:55 PM 33.8 °F 27.7 °F 30.2 °F 87% 29.71 in 3.0 mi North 6.9 mph - 0.05 in   Overcast